CSN2568 ZPPP-ZSPD

Flight info

Callsign CSN2568
Flight time N/A
Altitude 41100
Route K0896S1250 NOD9Z NODIB W137 LPS A581 WHA R343 EKIMU DCT
Aircraft A359/H-SDE2E3GHIJ3J4J5LM1ORWXY/LB1D1

Departure

Time 2026-04-28 10:19
Airport Kunming Changshui International Airport (ZPPP)

Arrival

Time N/A
Airport Shanghai Pudong International Airport (ZSPD)
Time Latitude Longitude Altitude Speed Heading
2026-04-28 10:19 25.01623 102.91953 9391 ft 292 kts 118°
2026-04-28 10:19 25.01279 102.94205 9749 ft 307 kts 84°
2026-04-28 10:19 25.01843 102.97293 10362 ft 316 kts 77°
2026-04-28 10:20 25.02144 102.98904 10525 ft 327 kts 79°
2026-04-28 10:20 25.02542 103.01417 10758 ft 341 kts 80°
2026-04-28 10:20 25.02890 103.04052 10967 ft 355 kts 82°
2026-04-28 10:20 25.03215 103.06789 11168 ft 368 kts 83°
2026-04-28 10:21 25.03528 103.09612 11526 ft 373 kts 83°
2026-04-28 10:21 25.03838 103.12473 11981 ft 379 kts 83°
2026-04-28 10:21 25.04148 103.15372 12370 ft 383 kts 82°
2026-04-28 10:21 25.04531 103.18277 12933 ft 383 kts 77°
2026-04-28 10:22 25.05315 103.21074 13397 ft 385 kts 65°
2026-04-28 10:22 25.06622 103.23637 13906 ft 384 kts 53°
2026-04-28 10:22 25.08375 103.25835 14251 ft 384 kts 40°
2026-04-28 10:22 25.10481 103.27652 14611 ft 386 kts 33°
2026-04-28 10:23 25.12691 103.29350 14988 ft 389 kts 32°
2026-04-28 10:23 25.14912 103.31044 15394 ft 391 kts 32°
2026-04-28 10:23 25.17121 103.32737 15781 ft 395 kts 32°
2026-04-28 10:23 25.19414 103.34504 16168 ft 397 kts 32°
2026-04-28 10:24 25.21676 103.36253 16533 ft 401 kts 32°
2026-04-28 10:24 25.23968 103.38028 16901 ft 403 kts 32°
2026-04-28 10:24 25.26009 103.39607 17217 ft 406 kts 32°
2026-04-28 10:24 25.28318 103.41400 17607 ft 408 kts 32°
2026-04-28 10:25 25.30615 103.43186 17981 ft 411 kts 32°
2026-04-28 10:25 25.32168 103.44393 18216 ft 413 kts 32°
2026-04-28 10:25 25.34532 103.46232 18475 ft 418 kts 32°
2026-04-28 10:25 25.36922 103.48087 18718 ft 422 kts 32°
2026-04-28 10:26 25.38915 103.49636 19043 ft 423 kts 32°
2026-04-28 10:26 25.41316 103.51507 19448 ft 422 kts 32°
2026-04-28 10:26 25.43714 103.53372 19777 ft 424 kts 32°
2026-04-28 10:26 25.46127 103.55253 20103 ft 426 kts 32°
2026-04-28 10:27 25.48549 103.57145 20389 ft 429 kts 32°
2026-04-28 10:27 25.50968 103.59074 20702 ft 432 kts 35°
2026-04-28 10:27 25.53202 103.61333 21001 ft 437 kts 46°
2026-04-28 10:27 25.55043 103.64002 21312 ft 440 kts 54°
2026-04-28 10:28 25.56729 103.66842 21573 ft 443 kts 56°
2026-04-28 10:28 25.58953 103.70673 21995 ft 445 kts 56°
2026-04-28 10:28 25.60073 103.72599 22193 ft 447 kts 56°
2026-04-28 10:29 25.63473 103.78428 22620 ft 456 kts 56°
2026-04-28 10:29 25.65199 103.81383 22894 ft 458 kts 56°
2026-04-28 10:29 25.66923 103.84336 23229 ft 459 kts 56°
2026-04-28 10:29 25.68659 103.87309 23523 ft 460 kts 56°
2026-04-28 10:30 25.70393 103.90279 23822 ft 462 kts 56°
2026-04-28 10:30 25.72138 103.93270 24016 ft 464 kts 56°
2026-04-28 10:30 25.73896 103.96284 24254 ft 466 kts 56°
2026-04-28 10:30 25.75653 103.99299 24494 ft 468 kts 56°
2026-04-28 10:31 25.77425 104.02341 24733 ft 471 kts 56°
2026-04-28 10:31 25.79197 104.05388 24982 ft 472 kts 56°
2026-04-28 10:31 25.80979 104.08452 25208 ft 474 kts 56°
2026-04-28 10:31 25.82770 104.11512 25448 ft 476 kts 56°
2026-04-28 10:32 25.84584 104.14592 25694 ft 478 kts 56°
2026-04-28 10:32 25.86410 104.17687 25960 ft 480 kts 56°
2026-04-28 10:32 25.88236 104.20787 26216 ft 483 kts 56°
2026-04-28 10:32 25.90076 104.23915 26401 ft 486 kts 56°
2026-04-28 10:33 25.91922 104.27061 26637 ft 488 kts 56°
2026-04-28 10:33 25.93772 104.30218 26923 ft 490 kts 56°
2026-04-28 10:33 25.95634 104.33399 27196 ft 492 kts 56°
2026-04-28 10:33 25.97496 104.36581 27429 ft 494 kts 56°
2026-04-28 10:34 25.99368 104.39784 27688 ft 497 kts 56°
2026-04-28 10:34 26.01276 104.42984 27960 ft 498 kts 53°
2026-04-28 10:34 26.03496 104.45938 28234 ft 499 kts 44°
2026-04-28 10:34 26.06018 104.48567 28483 ft 499 kts 40°
2026-04-28 10:35 26.08638 104.51114 28749 ft 501 kts 38°
2026-04-28 10:35 26.12206 104.54439 29142 ft 504 kts 37°
2026-04-28 10:35 26.14008 104.56090 29366 ft 506 kts 37°
2026-04-28 10:35 26.16736 104.58582 29590 ft 509 kts 37°
2026-04-28 10:36 26.19470 104.61087 29903 ft 511 kts 37°
2026-04-28 10:36 26.22210 104.63612 30196 ft 514 kts 37°
2026-04-28 10:36 26.24954 104.66156 30402 ft 517 kts 37°
2026-04-28 10:36 26.27716 104.68726 30663 ft 518 kts 37°
2026-04-28 10:37 26.30486 104.71307 30933 ft 520 kts 38°
2026-04-28 10:37 26.33255 104.73893 31237 ft 522 kts 38°
2026-04-28 10:37 26.36035 104.76491 31565 ft 523 kts 38°
2026-04-28 10:37 26.38817 104.79093 31809 ft 526 kts 38°
2026-04-28 10:38 26.41630 104.81720 32027 ft 530 kts 38°
2026-04-28 10:38 26.44455 104.84358 32243 ft 533 kts 38°
2026-04-28 10:38 26.47291 104.87012 32502 ft 534 kts 38°
2026-04-28 10:38 26.50143 104.89682 32743 ft 536 kts 37°
2026-04-28 10:39 26.52999 104.92354 32980 ft 538 kts 37°
2026-04-28 10:39 26.55849 104.95022 33274 ft 538 kts 38°
2026-04-28 10:39 26.58730 104.97718 33537 ft 540 kts 37°
2026-04-28 10:39 26.61550 105.00503 33723 ft 544 kts 43°
2026-04-28 10:40 26.64030 105.03695 33927 ft 549 kts 52°
2026-04-28 10:40 26.66025 105.07333 34191 ft 550 kts 62°
2026-04-28 10:40 26.67724 105.11163 34438 ft 552 kts 64°
2026-04-28 10:40 26.69329 105.15059 34683 ft 553 kts 66°
2026-04-28 10:41 26.70886 105.18982 35006 ft 552 kts 66°
2026-04-28 10:41 26.72423 105.22901 35335 ft 552 kts 66°
2026-04-28 10:41 26.73965 105.26827 35648 ft 552 kts 65°
2026-04-28 10:41 26.75499 105.30718 35982 ft 551 kts 65°
2026-04-28 10:42 26.77058 105.34648 36366 ft 550 kts 65°
2026-04-28 10:42 26.78611 105.38543 36690 ft 549 kts 65°
2026-04-28 10:42 26.80163 105.42431 37041 ft 548 kts 65°
2026-04-28 10:42 26.81717 105.46324 37375 ft 548 kts 65°
2026-04-28 10:43 26.82979 105.49487 37617 ft 548 kts 65°
2026-04-28 10:43 26.84527 105.53362 37943 ft 548 kts 65°
2026-04-28 10:43 26.86078 105.57253 38288 ft 547 kts 65°
2026-04-28 10:43 26.87627 105.61144 38619 ft 547 kts 65°
2026-04-28 10:44 26.89166 105.65016 38940 ft 545 kts 64°
2026-04-28 10:44 26.90703 105.68889 39261 ft 544 kts 65°
2026-04-28 10:44 26.92235 105.72754 39512 ft 543 kts 64°
2026-04-28 10:44 26.93762 105.76611 39745 ft 544 kts 65°
2026-04-28 10:45 26.95294 105.80483 39965 ft 544 kts 65°
2026-04-28 10:45 26.96824 105.84352 40199 ft 544 kts 65°
2026-04-28 10:45 26.98348 105.88210 40446 ft 543 kts 65°
2026-04-28 10:45 26.99877 105.92083 40674 ft 544 kts 65°
2026-04-28 10:46 27.01402 105.95953 40884 ft 543 kts 65°
2026-04-28 10:46 27.02918 105.99802 41089 ft 543 kts 65°
2026-04-28 10:46 27.04442 106.03675 41165 ft 544 kts 65°
2026-04-28 10:47 27.07755 106.11270 41164 ft 541 kts 60°
2026-04-28 10:47 27.11263 106.18704 41165 ft 541 kts 60°
2026-04-28 10:48 27.14759 106.26195 41163 ft 544 kts 60°
2026-04-28 10:48 27.18371 106.34080 41159 ft 546 kts 61°
2026-04-28 10:49 27.21806 106.41657 41167 ft 546 kts 61°
2026-04-28 10:49 27.25241 106.49235 41153 ft 545 kts 61°
2026-04-28 10:50 27.28672 106.56801 41171 ft 545 kts 61°
2026-04-28 10:50 27.32360 106.64945 41145 ft 545 kts 61°
2026-04-28 10:51 27.35796 106.72556 41158 ft 545 kts 61°
2026-04-28 10:51 27.39180 106.80090 41155 ft 544 kts 62°
2026-04-28 10:52 27.42589 106.87702 41134 ft 544 kts 62°
2026-04-28 10:52 27.45986 106.95304 41144 ft 545 kts 62°
2026-04-28 10:53 27.49383 107.02924 41122 ft 545 kts 62°
2026-04-28 10:53 27.52818 107.10507 41127 ft 544 kts 62°
2026-04-28 10:54 27.56252 107.18072 41153 ft 540 kts 61°
2026-04-28 10:54 27.59689 107.25569 41173 ft 540 kts 60°
2026-04-28 10:55 27.63203 107.33050 40958 ft 543 kts 60°
2026-04-28 10:55 27.66771 107.40568 40882 ft 543 kts 60°
2026-04-28 10:55 27.68555 107.44301 40991 ft 541 kts 60°
2026-04-28 10:56 27.70338 107.48003 41120 ft 537 kts 60°
2026-04-28 10:56 27.73947 107.55344 41134 ft 536 kts 59°
2026-04-28 10:56 27.75790 107.58994 40987 ft 539 kts 58°
2026-04-28 10:57 27.77659 107.62668 40816 ft 542 kts 58°
2026-04-28 10:57 27.81444 107.70014 40779 ft 542 kts 58°
2026-04-28 10:58 27.85214 107.77337 40853 ft 539 kts 59°
2026-04-28 10:58 27.88935 107.84652 40863 ft 537 kts 59°
2026-04-28 10:59 27.92622 107.91975 40813 ft 537 kts 59°
2026-04-28 10:59 27.96319 107.99315 40788 ft 538 kts 59°
2026-04-28 11:00 28.00050 108.06620 40756 ft 537 kts 58°
2026-04-28 11:00 28.03945 108.13815 40741 ft 538 kts 56°
2026-04-28 11:01 28.08009 108.20914 40741 ft 538 kts 55°
2026-04-28 11:01 28.12187 108.27880 40831 ft 535 kts 53°
2026-04-28 11:02 28.16554 108.34681 40890 ft 533 kts 51°
2026-04-28 11:02 28.21095 108.41305 40838 ft 534 kts 49°
2026-04-28 11:02 28.23428 108.44603 40545 ft 540 kts 49°
2026-04-28 11:03 28.25776 108.47935 40349 ft 544 kts 50°
2026-04-28 11:03 28.29682 108.53508 40487 ft 540 kts 50°
2026-04-28 11:04 28.34876 108.61527 39895 ft 552 kts 56°
2026-04-28 11:04 28.36932 108.65217 39707 ft 554 kts 58°
2026-04-28 11:04 28.38859 108.68957 40068 ft 543 kts 60°
2026-04-28 11:04 28.40642 108.72653 40728 ft 528 kts 61°
2026-04-28 11:05 28.42311 108.76309 41156 ft 519 kts 62°
2026-04-28 11:05 28.45490 108.83707 40703 ft 531 kts 64°
2026-04-28 11:05 28.47075 108.87529 40309 ft 540 kts 64°
2026-04-28 11:06 28.48683 108.91408 40136 ft 544 kts 65°
2026-04-28 11:06 28.51859 108.99127 40497 ft 534 kts 65°
2026-04-28 11:06 28.53411 109.02924 40759 ft 528 kts 65°
2026-04-28 11:07 28.54943 109.06699 40848 ft 527 kts 65°
2026-04-28 11:07 28.56500 109.10481 40709 ft 531 kts 64°
2026-04-28 11:07 28.58118 109.14277 40434 ft 537 kts 63°
2026-04-28 11:08 28.61470 109.21866 40384 ft 537 kts 63°
2026-04-28 11:08 28.64744 109.29512 40259 ft 539 kts 64°
2026-04-28 11:08 28.66339 109.33346 40370 ft 536 kts 64°
2026-04-28 11:09 28.67910 109.37172 40549 ft 531 kts 65°
2026-04-28 11:09 28.69463 109.40965 40734 ft 528 kts 65°
2026-04-28 11:09 28.71032 109.44735 40759 ft 528 kts 64°
2026-04-28 11:10 28.74318 109.52237 40480 ft 535 kts 62°
2026-04-28 11:10 28.76077 109.55999 40294 ft 539 kts 61°
2026-04-28 11:10 28.77894 109.59735 40242 ft 540 kts 60°
2026-04-28 11:10 28.79728 109.63444 40360 ft 538 kts 60°